User: anonymous   Login
Location: Moonridge Observatory
(39.2268°N, 77.7914°W)
Time: 02:57:29
(UTC-05:00)
Language:

CZ-2C R/B - Orbit

View from above orbital plane
View from above orbital plane
View from above satellite
View from above satellite

Ground track
Ground track

The orbit data is extracted from the following two-line orbital elements,

1 28480U 04046B   17017.41142144  .00000004  00000-0  17684-4 0  9997
2 28480  98.1937 123.3558 0141046 309.8330  90.7896 14.25622977632757
Epoch (UTC): 17 January 2017 09:52:26
Eccentricity: 0.0141046
inclination: 98.1937°
perigee height: 705 km
apogee height: 908 km
right ascension of ascending node: 123.3558°
argument of perigee: 309.8330°
revolutions per day: 14.25622977
mean anomaly at epoch: 90.7896°
orbit number at epoch: 63275

The dashed part of the orbit path shows where the satellite is in the earth's shadow,  

DLR